RYR4WR EPWR-EDDV

Flight info

Callsign RYR4WR
Flight time 0h 56m
Altitude 34000
Route ULGIL Z348 EKSEK T738 LASIS DCT HLZ HLZ1Z
Aircraft B738/M-SDE2E3FGHIRWXY/LB1

Departure

Time 2026-05-07 17:27
Airport Copernicus Wrocław Airport (EPWR)

Arrival

Time 2026-05-07 18:23
Airport Hannover Airport (EDDV)
Time Latitude Longitude Altitude Speed Heading
2026-05-07 17:01 51.10840 16.88099 411 ft 0 kts 25°
2026-05-07 17:15 51.10822 16.88086 401 ft 3 kts 20°
2026-05-07 17:15 51.10803 16.88077 408 ft 3 kts 10°
2026-05-07 17:15 51.10783 16.88074 411 ft 3 kts 354°
2026-05-07 17:16 51.10765 16.88081 404 ft 3 kts 321°
2026-05-07 17:16 51.10758 16.88094 407 ft 0 kts 296°
2026-05-07 17:19 51.10762 16.88082 405 ft 3 kts 296°
2026-05-07 17:20 51.10777 16.88031 408 ft 7 kts 296°
2026-05-07 17:20 51.10805 16.87940 409 ft 10 kts 296°
2026-05-07 17:20 51.10838 16.87835 411 ft 11 kts 296°
2026-05-07 17:20 51.10870 16.87731 411 ft 10 kts 295°
2026-05-07 17:21 51.10900 16.87631 409 ft 10 kts 296°
2026-05-07 17:21 51.10929 16.87536 408 ft 9 kts 296°
2026-05-07 17:21 51.10948 16.87444 411 ft 9 kts 259°
2026-05-07 17:21 51.10901 16.87386 411 ft 9 kts 206°
2026-05-07 17:22 51.10846 16.87344 411 ft 9 kts 206°
2026-05-07 17:22 51.10792 16.87303 411 ft 8 kts 206°
2026-05-07 17:22 51.10735 16.87259 412 ft 10 kts 206°
2026-05-07 17:22 51.10663 16.87296 411 ft 17 kts 122°
2026-05-07 17:23 51.10597 16.87513 410 ft 26 kts 116°
2026-05-07 17:23 51.10504 16.87815 409 ft 32 kts 116°
2026-05-07 17:23 51.10403 16.88140 409 ft 33 kts 116°
2026-05-07 17:23 51.10306 16.88458 409 ft 29 kts 116°
2026-05-07 17:24 51.10216 16.88751 408 ft 30 kts 116°
2026-05-07 17:24 51.10125 16.89049 410 ft 29 kts 116°
2026-05-07 17:24 51.10038 16.89331 414 ft 28 kts 116°
2026-05-07 17:24 51.09962 16.89578 413 ft 16 kts 115°
2026-05-07 17:25 51.09939 16.89724 412 ft 8 kts 99°
2026-05-07 17:25 51.09917 16.89771 412 ft 1 kts 167°
2026-05-07 17:25 51.09906 16.89763 412 ft 3 kts 217°
2026-05-07 17:25 51.09903 16.89729 412 ft 4 kts 284°
2026-05-07 17:26 51.09924 16.89689 409 ft 6 kts 310°
2026-05-07 17:26 51.09950 16.89624 413 ft 8 kts 296°
2026-05-07 17:26 51.10050 16.89296 412 ft 69 kts 296°
2026-05-07 17:26 51.10238 16.88684 412 ft 115 kts 296°
2026-05-07 17:27 51.10852 16.86731 729 ft 165 kts 298°
2026-05-07 17:27 51.11386 16.85058 1579 ft 174 kts 297°
2026-05-07 17:27 51.11921 16.83329 2393 ft 177 kts 296°
2026-05-07 17:27 51.12461 16.81479 2939 ft 192 kts 288°
2026-05-07 17:28 51.12386 16.79341 3209 ft 212 kts 241°
2026-05-07 17:28 51.11777 16.78035 3427 ft 216 kts 229°
2026-05-07 17:28 51.10559 16.75794 4525 ft 204 kts 231°
2026-05-07 17:28 51.09633 16.73902 4662 ft 229 kts 233°
2026-05-07 17:29 51.08674 16.71710 4866 ft 253 kts 236°
2026-05-07 17:29 51.07701 16.69323 5473 ft 260 kts 237°
2026-05-07 17:29 51.07043 16.67669 5846 ft 266 kts 237°
2026-05-07 17:29 51.05727 16.64305 5642 ft 269 kts 238°
2026-05-07 17:30 51.05084 16.62633 5592 ft 265 kts 239°
2026-05-07 17:30 51.04145 16.60114 5616 ft 258 kts 238°
2026-05-07 17:30 51.03209 16.57704 5762 ft 258 kts 238°
2026-05-07 17:30 51.02255 16.55248 6357 ft 263 kts 237°
2026-05-07 17:31 51.01305 16.52775 7118 ft 263 kts 240°
2026-05-07 17:31 51.00771 16.49997 7847 ft 268 kts 264°
2026-05-07 17:31 51.00990 16.47072 8582 ft 274 kts 282°
2026-05-07 17:31 51.01608 16.44175 9306 ft 280 kts 288°
2026-05-07 17:32 51.02367 16.41298 10005 ft 284 kts 290°
2026-05-07 17:32 51.03181 16.38348 10326 ft 303 kts 290°
2026-05-07 17:32 51.04058 16.35179 10501 ft 324 kts 290°
2026-05-07 17:32 51.04984 16.31817 10858 ft 338 kts 290°
2026-05-07 17:33 51.05928 16.28375 11482 ft 342 kts 290°
2026-05-07 17:33 51.06877 16.24891 12208 ft 344 kts 290°
2026-05-07 17:33 51.07828 16.21381 12946 ft 347 kts 290°
2026-05-07 17:33 51.08784 16.17830 13665 ft 351 kts 290°
2026-05-07 17:34 51.09746 16.14238 14328 ft 354 kts 290°
2026-05-07 17:34 51.10713 16.10619 15018 ft 357 kts 290°
2026-05-07 17:34 51.11687 16.06964 15715 ft 360 kts 290°
2026-05-07 17:34 51.12665 16.03284 16398 ft 363 kts 289°
2026-05-07 17:35 51.13654 15.99557 17069 ft 367 kts 289°
2026-05-07 17:35 51.14650 15.95795 17743 ft 370 kts 289°
2026-05-07 17:35 51.15652 15.92000 18374 ft 374 kts 289°
2026-05-07 17:35 51.16664 15.88164 18937 ft 377 kts 289°
2026-05-07 17:36 51.17683 15.84297 19506 ft 380 kts 289°
2026-05-07 17:36 51.18712 15.80382 20065 ft 384 kts 289°
2026-05-07 17:36 51.19754 15.76410 20623 ft 387 kts 289°
2026-05-07 17:36 51.20786 15.72472 21170 ft 390 kts 289°
2026-05-07 17:37 51.21837 15.68454 21710 ft 394 kts 289°
2026-05-07 17:37 51.22893 15.64408 22246 ft 397 kts 289°
2026-05-07 17:37 51.23957 15.60326 22781 ft 400 kts 289°
2026-05-07 17:37 51.25027 15.56215 23281 ft 403 kts 289°
2026-05-07 17:38 51.26107 15.52057 23744 ft 406 kts 289°
2026-05-07 17:38 51.27189 15.47883 24177 ft 409 kts 289°
2026-05-07 17:38 51.28278 15.43673 24605 ft 411 kts 289°
2026-05-07 17:38 51.29358 15.39492 25013 ft 414 kts 289°
2026-05-07 17:39 51.30473 15.35167 25425 ft 417 kts 289°
2026-05-07 17:39 51.31578 15.30873 25828 ft 419 kts 289°
2026-05-07 17:39 51.32687 15.26553 26247 ft 421 kts 289°
2026-05-07 17:39 51.33781 15.22285 26764 ft 420 kts 289°
2026-05-07 17:40 51.34885 15.17978 27350 ft 417 kts 289°
2026-05-07 17:40 51.35995 15.13636 27914 ft 415 kts 288°
2026-05-07 17:40 51.37070 15.09418 28395 ft 415 kts 288°
2026-05-07 17:40 51.38173 15.05084 28847 ft 415 kts 288°
2026-05-07 17:41 51.39260 15.00801 29339 ft 414 kts 288°
2026-05-07 17:41 51.40325 14.96597 29838 ft 413 kts 288°
2026-05-07 17:41 51.42502 14.87969 29970 ft 422 kts 289°
2026-05-07 17:42 51.44730 14.79103 30136 ft 436 kts 289°
2026-05-07 17:42 51.45868 14.74567 30316 ft 440 kts 289°
2026-05-07 17:42 51.46999 14.70049 30596 ft 441 kts 289°
2026-05-07 17:43 51.48149 14.65454 31009 ft 438 kts 289°
2026-05-07 17:43 51.49281 14.60925 31444 ft 436 kts 289°
2026-05-07 17:43 51.50406 14.56409 31855 ft 436 kts 289°
2026-05-07 17:43 51.51531 14.51881 32163 ft 436 kts 289°
2026-05-07 17:44 51.52651 14.47362 32527 ft 435 kts 289°
2026-05-07 17:44 51.53766 14.42856 32900 ft 434 kts 289°
2026-05-07 17:44 51.54877 14.38355 33253 ft 433 kts 289°
2026-05-07 17:44 51.55986 14.33851 33568 ft 433 kts 288°
2026-05-07 17:45 51.57090 14.29361 33917 ft 432 kts 288°
2026-05-07 17:45 51.58190 14.24876 34052 ft 433 kts 288°
2026-05-07 17:45 51.60398 14.15846 34050 ft 433 kts 288°
2026-05-07 17:46 51.62589 14.06854 34056 ft 430 kts 288°
2026-05-07 17:46 51.64745 13.97969 34058 ft 428 kts 288°
2026-05-07 17:47 51.66902 13.89039 34063 ft 427 kts 288°
2026-05-07 17:47 51.69046 13.80126 34061 ft 427 kts 288°
2026-05-07 17:48 51.71190 13.71179 34065 ft 428 kts 288°
2026-05-07 17:48 51.73331 13.62206 34071 ft 430 kts 289°
2026-05-07 17:49 51.75478 13.53172 34075 ft 432 kts 289°
2026-05-07 17:49 51.77625 13.44098 34075 ft 433 kts 289°
2026-05-07 17:50 51.79773 13.34982 34078 ft 435 kts 289°
2026-05-07 17:50 51.81921 13.25831 34075 ft 436 kts 289°
2026-05-07 17:51 51.84065 13.16653 34083 ft 437 kts 289°
2026-05-07 17:51 51.86209 13.07437 34086 ft 440 kts 289°
2026-05-07 17:52 51.88382 12.98052 34088 ft 450 kts 289°
2026-05-07 17:52 51.90585 12.88500 34069 ft 454 kts 289°
2026-05-07 17:53 51.92784 12.78925 34082 ft 453 kts 289°
2026-05-07 17:53 51.94976 12.69340 34079 ft 453 kts 289°
2026-05-07 17:54 51.97153 12.59772 34069 ft 452 kts 289°
2026-05-07 17:54 51.99308 12.50254 34073 ft 452 kts 289°
2026-05-07 17:55 52.01477 12.40633 34071 ft 451 kts 289°
2026-05-07 17:55 52.03625 12.31065 34082 ft 451 kts 289°
2026-05-07 17:56 52.05744 12.21578 34065 ft 451 kts 289°
2026-05-07 17:56 52.06822 12.16738 33439 ft 458 kts 289°
2026-05-07 17:56 52.07901 12.11876 32850 ft 456 kts 289°
2026-05-07 17:57 52.08970 12.07055 32233 ft 452 kts 289°
2026-05-07 17:57 52.09689 12.03806 31830 ft 450 kts 289°
2026-05-07 17:57 52.11084 11.97481 31059 ft 447 kts 289°
2026-05-07 17:57 52.12130 11.92728 30474 ft 445 kts 289°
2026-05-07 17:58 52.13168 11.88003 29887 ft 442 kts 289°
2026-05-07 17:58 52.14198 11.83301 29260 ft 439 kts 289°
2026-05-07 17:58 52.15216 11.78644 28648 ft 435 kts 289°
2026-05-07 17:58 52.16227 11.74010 28031 ft 433 kts 289°
2026-05-07 17:59 52.17232 11.69390 27452 ft 434 kts 289°
2026-05-07 17:59 52.18239 11.64751 26878 ft 434 kts 289°
2026-05-07 17:59 52.19246 11.60103 26314 ft 435 kts 289°
2026-05-07 17:59 52.20247 11.55469 25758 ft 432 kts 289°
2026-05-07 18:00 52.21242 11.50858 25201 ft 428 kts 289°
2026-05-07 18:00 52.22222 11.46302 24676 ft 424 kts 289°
2026-05-07 18:00 52.23191 11.41789 24133 ft 420 kts 289°
2026-05-07 18:00 52.24150 11.37311 23612 ft 416 kts 289°
2026-05-07 18:01 52.25115 11.32869 23001 ft 413 kts 291°
2026-05-07 18:01 52.26192 11.28551 22427 ft 409 kts 293°
2026-05-07 18:01 52.27333 11.24315 21889 ft 405 kts 294°
2026-05-07 18:01 52.28478 11.20152 21428 ft 399 kts 294°
2026-05-07 18:02 52.30708 11.11983 20455 ft 390 kts 293°
2026-05-07 18:02 52.31793 11.07946 19970 ft 387 kts 293°
2026-05-07 18:02 52.32865 11.03923 19467 ft 384 kts 293°
2026-05-07 18:03 52.33919 10.99948 19003 ft 380 kts 292°
2026-05-07 18:03 52.34963 10.95991 18582 ft 376 kts 292°
2026-05-07 18:03 52.35991 10.92084 18114 ft 373 kts 292°
2026-05-07 18:03 52.36668 10.89506 17798 ft 371 kts 292°
2026-05-07 18:04 52.38019 10.84353 17158 ft 367 kts 292°
2026-05-07 18:04 52.39012 10.80556 16686 ft 364 kts 292°
2026-05-07 18:04 52.40013 10.76725 16221 ft 361 kts 292°
2026-05-07 18:04 52.40995 10.72958 15758 ft 359 kts 292°
2026-05-07 18:05 52.41972 10.69207 15313 ft 357 kts 292°
2026-05-07 18:05 52.42942 10.65475 14862 ft 355 kts 292°
2026-05-07 18:05 52.43881 10.61761 14433 ft 352 kts 289°
2026-05-07 18:05 52.44468 10.57878 14008 ft 350 kts 280°
2026-05-07 18:06 52.44881 10.53951 13524 ft 349 kts 279°
2026-05-07 18:06 52.45264 10.50040 13053 ft 347 kts 278°
2026-05-07 18:06 52.45645 10.46134 12580 ft 346 kts 279°
2026-05-07 18:06 52.46030 10.42256 12113 ft 344 kts 279°
2026-05-07 18:07 52.46415 10.38441 11653 ft 343 kts 279°
2026-05-07 18:07 52.46815 10.34533 11216 ft 342 kts 279°
2026-05-07 18:07 52.47208 10.30714 11131 ft 341 kts 279°
2026-05-07 18:07 52.47604 10.26880 11091 ft 341 kts 279°
2026-05-07 18:08 52.48001 10.23035 10708 ft 342 kts 279°
2026-05-07 18:08 52.48386 10.19306 10516 ft 326 kts 279°
2026-05-07 18:08 52.48756 10.15706 10396 ft 307 kts 279°
2026-05-07 18:08 52.49101 10.12339 10294 ft 290 kts 279°
2026-05-07 18:09 52.49424 10.09182 10274 ft 272 kts 279°
2026-05-07 18:09 52.49727 10.06215 10208 ft 257 kts 279°
2026-05-07 18:09 52.50025 10.03290 9701 ft 262 kts 279°
2026-05-07 18:09 52.50326 10.00327 9235 ft 265 kts 280°
2026-05-07 18:10 52.50631 9.97314 8825 ft 270 kts 280°
2026-05-07 18:10 52.50941 9.94249 8422 ft 275 kts 280°
2026-05-07 18:10 52.51255 9.91130 8015 ft 279 kts 280°
2026-05-07 18:10 52.51571 9.87980 7674 ft 281 kts 280°
2026-05-07 18:11 52.51889 9.84803 7325 ft 283 kts 280°
2026-05-07 18:11 52.52101 9.82687 7154 ft 283 kts 280°
2026-05-07 18:11 52.52519 9.78487 6856 ft 279 kts 280°
2026-05-07 18:11 52.52833 9.75327 6500 ft 282 kts 280°
2026-05-07 18:12 52.53149 9.72139 6129 ft 285 kts 280°
2026-05-07 18:12 52.53468 9.68920 5771 ft 287 kts 280°
2026-05-07 18:12 52.53788 9.65673 5416 ft 289 kts 280°
2026-05-07 18:12 52.54100 9.62485 5045 ft 284 kts 280°
2026-05-07 18:13 52.54410 9.59274 4673 ft 279 kts 280°
2026-05-07 18:13 52.54695 9.56196 4415 ft 270 kts 280°
2026-05-07 18:13 52.54940 9.53202 4216 ft 261 kts 276°
2026-05-07 18:13 52.55077 9.50242 4014 ft 252 kts 275°
2026-05-07 18:14 52.55187 9.47460 3818 ft 243 kts 275°
2026-05-07 18:14 52.55289 9.44723 3638 ft 235 kts 275°
2026-05-07 18:14 52.55382 9.42110 3466 ft 224 kts 275°
2026-05-07 18:14 52.55467 9.39609 3240 ft 215 kts 275°
2026-05-07 18:15 52.55546 9.37205 3049 ft 205 kts 275°
2026-05-07 18:15 52.55620 9.34912 2996 ft 198 kts 275°
2026-05-07 18:15 52.55697 9.32656 3019 ft 199 kts 275°
2026-05-07 18:15 52.55775 9.30365 3022 ft 203 kts 275°
2026-05-07 18:16 52.55812 9.28792 2995 ft 205 kts 267°
2026-05-07 18:16 52.55335 9.26659 2992 ft 198 kts 227°
2026-05-07 18:16 52.54225 9.25498 2983 ft 191 kts 187°
2026-05-07 18:16 52.52966 9.25715 3007 ft 182 kts 149°
2026-05-07 18:17 52.52025 9.27059 3005 ft 177 kts 121°
2026-05-07 18:17 52.51387 9.28781 2995 ft 176 kts 116°
2026-05-07 18:17 52.50792 9.30507 2992 ft 176 kts 116°
2026-05-07 18:17 52.50192 9.32255 2990 ft 176 kts 116°
2026-05-07 18:18 52.49589 9.34006 2990 ft 176 kts 116°
2026-05-07 18:18 52.48987 9.35748 2992 ft 176 kts 116°
2026-05-07 18:18 52.48382 9.37493 2989 ft 176 kts 117°
2026-05-07 18:18 52.47774 9.39242 2998 ft 178 kts 117°
2026-05-07 18:19 52.47158 9.41014 3003 ft 180 kts 117°
2026-05-07 18:19 52.46534 9.42806 2997 ft 180 kts 117°
2026-05-07 18:19 52.46113 9.44652 2947 ft 169 kts 89°
2026-05-07 18:19 52.46151 9.46558 2763 ft 163 kts 92°
2026-05-07 18:20 52.46071 9.48377 2585 ft 160 kts 93°
2026-05-07 18:20 52.46005 9.50194 2357 ft 158 kts 92°
2026-05-07 18:20 52.45950 9.51964 2136 ft 157 kts 92°
2026-05-07 18:20 52.45897 9.53755 1923 ft 158 kts 92°
2026-05-07 18:21 52.45844 9.55567 1705 ft 159 kts 92°
2026-05-07 18:21 52.45794 9.57297 1497 ft 147 kts 93°
2026-05-07 18:21 52.45747 9.58942 1303 ft 143 kts 92°
2026-05-07 18:21 52.45700 9.60592 1085 ft 147 kts 92°
2026-05-07 18:22 52.45661 9.62278 879 ft 149 kts 93°
2026-05-07 18:22 52.45622 9.63424 726 ft 150 kts 95°
2026-05-07 18:22 52.45550 9.65683 449 ft 150 kts 93°
2026-05-07 18:22 52.45508 9.67381 267 ft 148 kts 94°
2026-05-07 18:23 52.45460 9.69003 183 ft 125 kts 93°
2026-05-07 18:23 52.45438 9.69881 181 ft 41 kts 92°
2026-05-07 18:23 52.45427 9.70258 180 ft 30 kts 92°
2026-05-07 18:23 52.45420 9.70502 182 ft 13 kts 92°
2026-05-07 18:24 52.45425 9.70637 182 ft 11 kts 57°
2026-05-07 18:24 52.45491 9.70670 179 ft 7 kts
2026-05-07 18:24 52.45505 9.70671 178 ft 2 kts
2026-05-07 18:24 52.45516 9.70672 178 ft 2 kts
2026-05-07 18:25 52.45547 9.70674 177 ft 7 kts
2026-05-07 18:25 52.45587 9.70645 177 ft 7 kts 284°
2026-05-07 18:25 52.45584 9.70531 177 ft 12 kts 271°
2026-05-07 18:25 52.45589 9.70381 177 ft 14 kts 272°
2026-05-07 18:26 52.45594 9.70226 177 ft 13 kts 272°
2026-05-07 18:26 52.45597 9.70060 177 ft 15 kts 272°
2026-05-07 18:26 52.45602 9.69907 177 ft 11 kts 274°
2026-05-07 18:26 52.45650 9.69822 177 ft 11 kts 328°
2026-05-07 18:27 52.45675 9.69714 177 ft 11 kts 273°
2026-05-07 18:27 52.45678 9.69594 177 ft 11 kts 272°
2026-05-07 18:27 52.45689 9.69516 177 ft 6 kts 306°
2026-05-07 18:27 52.45722 9.69476 177 ft 6 kts 328°
2026-05-07 18:28 52.45755 9.69457 177 ft 0 kts
2026-05-07 18:28 52.45756 9.69457 177 ft 0 kts 10°
2026-05-07 18:29 52.45757 9.69458 177 ft 1 kts 14°
2026-05-07 18:29 52.45801 9.69530 177 ft 9 kts 52°
2026-05-07 18:29 52.45808 9.69544 177 ft 0 kts 52°